,

(GMT )
Resia Pass

Weather History for LIVE - November, 2011

Change the Weather History Date:

Monday, November 28, 2011

  Actual Average Record
Temperature  
Mean Temperature 42 °F -  
Max Temperature 50 °F 36 °F 55 °F (2006)
Min Temperature 32 °F 24 °F 12 °F (2005)
Degree Days  
Heating Degree Days 24    
Moisture  
Dew Point 30 °F    
Average Humidity 68    
Maximum Humidity 93    
Minimum Humidity 50    
Precipitation  
Precipitation 0.00 in - - ()
Sea Level Pressure  
Sea Level Pressure 30.26 in    
Wind  
Wind Speed 4 mph ()    
Max Wind Speed 8 mph    
Max Gust Speed -    
Averages and records for this station are not official NWS values.
T = Trace of Precipitation, MM = Missing Value Source: Averaged Metar Reports

Daily Weather History Graph

Daily Weather History Graph

Search for Another Location

Airport or City:

Trip Planner

Search our weather history database for the weather conditions in past years. The results will help you decide how hot, cold, wet, or windy it might be!

Date:

Astronomy

Nov. 28, 2011 Rise Set
Actual Time 7:38 AM CET 4:33 PM CET
Civil Twilight 7:03 AM CET 5:07 PM CET
Nautical Twilight 6:26 AM CET 5:45 PM CET
Astronomical Twilight 5:49 AM CET 6:21 PM CET
Moon 10:35 AM CET (11/28) 8:03 PM CET (11/28)
Length of Visible Light 10h 03m
Length of Day
8h 55m
Waxing Crescent, 13% of the Moon is Illuminated
Nov 28
Waxing Crescent
Dec 2
First Quarter
Dec 10
Full
Dec 18
Last Quarter
Dec 24
New

Hourly Weather History & Observations

Time (CET) Temp. Windchill Dew Point Humidity Pressure Visibility Wind Dir Wind Speed Gust Speed Precip Events Conditions
12:55 AM 41.0 °F 37.1 °F 26.6 °F 57% 30.27 in - North 5.8 mph - N/A   Clear
1:55 AM 41.0 °F 35.8 °F 28.4 °F 61% 30.27 in - North 8.1 mph - N/A   Clear
2:55 AM 39.2 °F 35.0 °F 28.4 °F 65% 30.27 in - North 5.8 mph - N/A   Clear
3:55 AM 41.0 °F 36.4 °F 30.2 °F 65% 30.27 in - North 6.9 mph - N/A   Clear
4:55 AM 39.2 °F 35.0 °F 30.2 °F 70% 30.27 in - North 5.8 mph - N/A   Clear
6:55 AM 39.2 °F 33.6 °F 28.4 °F 65% 30.27 in - North 8.1 mph - N/A   Clear
7:55 AM 37.4 °F 32.8 °F 28.4 °F 70% 30.27 in - North 5.8 mph - N/A   Clear
8:55 AM 37.4 °F 31.4 °F 26.6 °F 65% 30.27 in - NNE 8.1 mph - N/A   Clear
9:55 AM 39.2 °F 35.0 °F 28.4 °F 65% 30.27 in - North 5.8 mph - N/A   Clear
10:55 AM 44.6 °F 40.2 °F 30.2 °F 57% 30.27 in - North 8.1 mph - N/A   Clear
11:55 AM 46.4 °F 42.9 °F 30.2 °F 53% 30.27 in - NNW 6.9 mph - N/A   Clear
1:55 PM 50.0 °F - 32.0 °F 50% 30.24 in - North 5.8 mph - N/A   Clear
2:55 PM 48.2 °F - 32.0 °F 54% 30.24 in - North 3.5 mph - N/A   Clear
3:55 PM 44.6 °F - 33.8 °F 66% 30.24 in - Variable 1.2 mph - N/A   Clear
5:55 PM 41.0 °F - 30.2 °F 65% 30.24 in - Variable 1.2 mph - N/A   Clear
6:55 PM 37.4 °F - 30.2 °F 75% 30.24 in - Calm Calm - N/A   Clear
7:55 PM 35.6 °F - 30.2 °F 81% 30.24 in - Variable 1.2 mph - N/A   Clear
8:55 PM 35.6 °F - 30.2 °F 81% 30.27 in - Calm Calm - N/A   Clear
9:55 PM 33.8 °F - 30.2 °F 87% 30.27 in - Calm Calm - N/A   Clear
10:55 PM 33.8 °F - 30.2 °F 87% 30.30 in - Calm Calm - N/A   Clear
11:55 PM 32.0 °F - 30.2 °F 93% 30.30 in - Calm Calm - N/A   Clear